[[{"header":{"parameterUnit":"m.s-1","parameterCategory":1,"la1":30.2991,"la2":30.254,"lo1":-89.0895,"lo2":-89.0444,"dy":0.0017,"dx":0.0017,"nx":28,"ny":28,"refTime":"2023-11-17T03:00:00:Z","depth":0,"parameterNumber":2,"parameterNumberName":"U-component_of_WINDS"},"data":[0,0,0,0,0,0,0,0,0,0,0,0,0,0,0,0,0,0,0,0,0,0,0,0,0,0,0,0,0,0,0,0,0,0,0,0,0,0,0,0,0,0,0,0,0,0,0,0,0,0,0,0,0,0,0,0,0,0,0.5504,0.5504,0,0.5487,0.5486,0.5486,0.5478,0.5478,0.5478,0.5478,0.5457,0.5456,0.5456,0,0,0,0,0,0,0,0,0,0,0,0,0,0.5531,0.553,0.5504,0.5504,0.5504,0.5487,0.5486,0.5486,0.5478,0.5478,0.5478,0.5478,0.5457,0.5456,0.5456,0,0,0,0,0,0,0,0,0,0,0,0,0,0.5516,0.553,0.5504,0.5498,0.5497,0.5487,0.5486,0.5486,0.5478,0.5478,0.5478,0.5478,0.5457,0.5456,0.5455,0.5449,0,0,0.5453,0.5452,0,0,0,0,0,0,0,0,0.5517,0.5516,0.5499,0.5499,0.5498,0.5485,0.5488,0.5473,0.5478,0.5485,0.5478,0.5478,0.5466,0.5464,0.5461,0.5448,0.5447,0.5453,0.5452,0.5452,0.5451,0,0,0,0,0,0,0,0.5518,0.5516,0.5497,0.5499,0.5498,0.5496,0.5494,0.5485,0.5475,0.5485,0.5484,0.5482,0.5465,0.5462,0.546,0.5446,0.5453,0.5452,0.5451,0.5451,0.5429,0.5429,0,0,0,0,0,0,0.5521,0.5517,0.5498,0.5497,0.5508,0.5495,0.5493,0.5489,0.5476,0.5474,0.5482,0.5482,0.5463,0.5461,0.5459,0.5451,0.5452,0.5451,0.545,0.5429,0.5429,0.5429,0,0,0,0,0,0,0.5521,0.5519,0.5499,0.5507,0.5504,0.5495,0.549,0.5488,0.5485,0.5474,0.5472,0.548,0.5463,0.5461,0.5452,0.545,0.545,0.545,0.5429,0.5429,0.5429,0.5435,0,0,0,0,0,0,0.5522,0.5519,0.5517,0.5507,0.5504,0.5492,0.549,0.5488,0.5483,0.5483,0.5471,0.5469,0.5463,0.5453,0.5451,0.5449,0.5449,0.5429,0.5429,0.5429,0.5435,0.5435,0.5435,0,0,0,0,0,0.5523,0.5518,0.5517,0.5514,0.55,0.5492,0.549,0.5484,0.5483,0.5481,0.5474,0.547,0.5451,0.5453,0.545,0.5448,0.5429,0.5429,0.5429,0.5434,0.5435,0.5435,0,0,0,0,0,0,0.5526,0.5516,0.5515,0.5507,0.55,0.5491,0.5487,0.5484,0.5477,0.5476,0.5468,0.5465,0.5458,0.5452,0.5454,0.5441,0.544,0.5439,0.5445,0.5445,0.5446,0.5446,0.5448,0,0,0,0,0,0.5526,0.5521,0.5512,0.5506,0.5503,0.5496,0.5492,0.5488,0.548,0.5477,0.547,0.5462,0.5455,0.545,0.5442,0.5434,0.5432,0.5432,0.5432,0.5432,0.5431,0.5428,0.5428,0.5429,0.5429,0.5429,0,0,0.5525,0.552,0.5516,0.5506,0.5501,0.5495,0.5493,0.5487,0.5482,0.5476,0.5468,0.5462,0.5453,0.5445,0.5441,0.544,0.5431,0.5432,0.5432,0.5431,0.5428,0.5427,0.5427,0.5428,0.5428,0.5428,0,0,0.5521,0.5516,0.5511,0.5506,0.5499,0.5495,0.5494,0.5485,0.5481,0.5474,0.5469,0.5464,0.5451,0.5445,0.544,0.5437,0.5433,0.5435,0.5436,0.5432,0.5432,0.5432,0.5431,0.5431,0.5435,0.5435,0.5435,0,0.5521,0.5512,0.5508,0.5503,0.5499,0.5495,0.5489,0.5485,0.5475,0.5472,0.5472,0.5457,0.5451,0.5442,0.5442,0.5438,0.5436,0.5436,0.5433,0.5433,0.5433,0.5431,0.5431,0.5435,0.5435,0.5435,0.5435,0,0.5512,0.5507,0.5504,0.5496,0.5492,0.5486,0.5481,0.5478,0.5475,0.5471,0.5463,0.5456,0.5448,0.5446,0.5442,0.5437,0.5436,0.5435,0.5433,0.5433,0.5432,0.5431,0.5435,0.5435,0.5435,0.5435,0,0,0.5507,0.5499,0.5498,0.5495,0.5488,0.5484,0.5479,0.5472,0.5469,0.5463,0.5459,0.545,0.5449,0.5444,0.544,0.5437,0.5436,0.5435,0.5435,0.5435,0.543,0.5431,0.543,0.5434,0.5434,0.5434,0.5431,0,0.5501,0.5492,0.549,0.5482,0.5478,0.5475,0.5471,0.5466,0.5463,0.5458,0.5454,0.5448,0.5447,0.5444,0.5441,0.5436,0.5434,0.5437,0.5429,0.5428,0.543,0.5429,0.543,0.5427,0.543,0.543,0.543,0,0.5492,0.5488,0.5481,0.5477,0.5474,0.5471,0.5465,0.5461,0.5456,0.5454,0.545,0.5447,0.5442,0.5442,0.5435,0.5436,0.5433,0.5431,0.5431,0.5428,0.5428,0.5427,0.5426,0.5425,0.5429,0.5429,0.5429,0,0.5489,0.5482,0.5477,0.5474,0.5469,0.5467,0.5464,0.5459,0.5456,0.5452,0.545,0.5444,0.5441,0.5437,0.5433,0.5433,0.5426,0.5425,0.5424,0.5424,0.5421,0.5421,0.5419,0.542,0.542,0.542,0.542,0,0.5482,0.5477,0.5475,0.5472,0.5467,0.5465,0.546,0.5457,0.5454,0.545,0.5448,0.5444,0.544,0.5435,0.5432,0.5427,0.5426,0.5423,0.5422,0.5423,0.5423,0.542,0.5419,0.542,0.542,0.542,0.542,0,0.5476,0.5475,0.5469,0.5465,0.5465,0.5461,0.5458,0.5455,0.5453,0.5448,0.5447,0.5443,0.5438,0.5435,0.5428,0.5426,0.542,0.5419,0.5422,0.5421,0.542,0.542,0.5414,0.5414,0.5417,0.5417,0.5417,0,0.5471,0.5468,0.5465,0.5463,0.5461,0.5458,0.5455,0.5454,0.5451,0.5447,0.5444,0.544,0.5436,0.5429,0.5425,0.542,0.5419,0.5418,0.5418,0.5419,0.5418,0.5418,0.5418,0.5417,0.5417,0.5417,0.5417,0,0.5463,0.5463,0.546,0.5457,0.5455,0.5452,0.5449,0.5448,0.5446,0.5443,0.5439,0.5437,0.5431,0.5427,0.5423,0.542,0.5418,0.5417,0.5417,0.5416,0.5418,0.5417,0.5421,0.5417,0.5417,0.5417,0.5417,0.5417,0.5456,0.5454,0.5452,0.5449,0.5448,0.5446,0.5444,0.5442,0.5439,0.5436,0.5435,0.5431,0.5428,0.5422,0.542,0.5417,0.5416,0.5415,0.5415,0.5414,0.5414,0.542,0.5416,0.5416,0.5416,0.5416,0.5416,0,0.5447,0.5447,0.5445,0.5442,0.544,0.5441,0.5439,0.5437,0.5434,0.5432,0.5429,0.5426,0.5422,0.542,0.5416,0.5414,0.5413,0.5413,0.5412,0.5412,0.5415,0.5416,0.5414,0.5414,0.5414,0.5414,0.5414,0.5414,0.5442,0.5438,0.5439,0.5435,0.5434,0.5431,0.543,0.5429,0.5427,0.5424,0.5422,0.5421,0.5419,0.5415,0.5412,0.5412,0.541,0.541,0.5409,0.5411,0.5412,0.5412,0.5412,0.541,0.541,0.5407,0.5407,0.5407]},{"header":{"parameterUnit":"m.s-1","parameterCategory":1,"la1":30.2991,"la2":30.254,"lo1":-89.0895,"lo2":-89.0444,"dy":0.0017,"dx":0.0017,"nx":28,"ny":28,"refTime":"2023-11-17T03:00:00:Z","depth":0,"parameterNumber":3,"parameterNumberName":"V-component_of_WINDS"},"data":[0,0,0,0,0,0,0,0,0,0,0,0,0,0,0,0,0,0,0,0,0,0,0,0,0,0,0,0,0,0,0,0,0,0,0,0,0,0,0,0,0,0,0,0,0,0,0,0,0,0,0,0,0,0,0,0,0,0,-2.3879,-2.3879,0,-2.3881,-2.3881,-2.3881,-2.3873,-2.3872,-2.3872,-2.3872,-2.3871,-2.3871,-2.3872,0,0,0,0,0,0,0,0,0,0,0,0,0,-2.3867,-2.3867,-2.3879,-2.3879,-2.3879,-2.3881,-2.3881,-2.3881,-2.3873,-2.3872,-2.3872,-2.3872,-2.3871,-2.3871,-2.3872,0,0,0,0,0,0,0,0,0,0,0,0,0,-2.3871,-2.3867,-2.3879,-2.3875,-2.3875,-2.3881,-2.3881,-2.3881,-2.3873,-2.3872,-2.3872,-2.3872,-2.3871,-2.3871,-2.3872,-2.3881,0,0,-2.3873,-2.3873,0,0,0,0,0,0,0,0,-2.387,-2.3871,-2.3876,-2.3876,-2.3875,-2.3876,-2.3877,-2.3881,-2.3873,-2.3873,-2.3872,-2.3871,-2.3873,-2.3873,-2.3874,-2.3881,-2.3881,-2.3873,-2.3873,-2.3873,-2.3873,0,0,0,0,0,0,0,-2.387,-2.3871,-2.388,-2.3876,-2.3876,-2.3873,-2.3873,-2.3878,-2.3875,-2.3873,-2.3873,-2.3873,-2.3873,-2.3874,-2.3874,-2.3881,-2.3873,-2.3873,-2.3873,-2.3873,-2.3898,-2.3899,0,0,0,0,0,0,-2.3871,-2.3871,-2.388,-2.388,-2.3872,-2.3874,-2.3874,-2.3876,-2.3875,-2.3875,-2.3874,-2.3873,-2.3874,-2.3874,-2.3874,-2.3887,-2.3873,-2.3873,-2.3873,-2.3898,-2.3898,-2.3899,0,0,0,0,0,0,-2.387,-2.3872,-2.388,-2.3875,-2.3876,-2.3874,-2.3877,-2.3877,-2.3878,-2.3875,-2.3875,-2.3875,-2.3873,-2.3874,-2.388,-2.3887,-2.3873,-2.3874,-2.3897,-2.3898,-2.3899,-2.3911,0,0,0,0,0,0,-2.387,-2.3872,-2.3875,-2.3876,-2.3877,-2.3886,-2.3878,-2.3877,-2.3879,-2.3878,-2.3877,-2.3876,-2.3873,-2.388,-2.3881,-2.3887,-2.3874,-2.3897,-2.3898,-2.3898,-2.391,-2.3912,-2.3914,0,0,0,0,0,-2.387,-2.3878,-2.3876,-2.3877,-2.3881,-2.3887,-2.3887,-2.3884,-2.3879,-2.3883,-2.3882,-2.3876,-2.3886,-2.3881,-2.3881,-2.3888,-2.3896,-2.3897,-2.3898,-2.3909,-2.3912,-2.3914,0,0,0,0,0,0,-2.3876,-2.3877,-2.3875,-2.3883,-2.3885,-2.3885,-2.389,-2.3886,-2.3889,-2.3888,-2.3883,-2.3883,-2.389,-2.389,-2.3884,-2.3898,-2.389,-2.3891,-2.3898,-2.3901,-2.3902,-2.3902,-2.3874,0,0,0,0,0,-2.3879,-2.3884,-2.3884,-2.3892,-2.3893,-2.3891,-2.3894,-2.3891,-2.3893,-2.3893,-2.3892,-2.3893,-2.3896,-2.3898,-2.3901,-2.391,-2.391,-2.3915,-2.3917,-2.3919,-2.392,-2.3926,-2.3929,-2.3902,-2.3902,-2.3902,0,0,-2.3884,-2.3886,-2.3889,-2.3893,-2.3894,-2.39,-2.3892,-2.3897,-2.3901,-2.3893,-2.39,-2.39,-2.39,-2.3909,-2.3912,-2.3908,-2.3927,-2.392,-2.3921,-2.3921,-2.3928,-2.393,-2.3932,-2.3903,-2.3903,-2.3903,0,0,-2.3897,-2.3898,-2.3905,-2.3907,-2.3909,-2.3909,-2.3911,-2.3911,-2.3911,-2.3918,-2.3914,-2.3918,-2.3923,-2.3925,-2.3926,-2.3942,-2.3937,-2.3942,-2.3952,-2.3959,-2.3961,-2.3963,-2.3969,-2.3972,-2.3944,-2.3944,-2.3944,0,-2.3902,-2.3911,-2.3909,-2.3915,-2.3918,-2.3913,-2.3921,-2.3922,-2.3925,-2.3927,-2.3923,-2.3931,-2.3931,-2.3941,-2.3945,-2.3946,-2.3948,-2.3942,-2.3961,-2.3963,-2.3964,-2.3971,-2.3973,-2.3944,-2.3944,-2.3944,-2.3944,0,-2.3918,-2.3924,-2.3929,-2.3934,-2.3938,-2.3944,-2.3944,-2.3947,-2.3945,-2.3945,-2.3953,-2.3953,-2.3957,-2.3959,-2.3956,-2.3969,-2.3967,-2.3962,-2.3954,-2.3968,-2.3973,-2.3976,-2.3945,-2.3945,-2.3945,-2.3945,0,0,-2.3933,-2.3939,-2.3941,-2.3944,-2.3948,-2.3952,-2.3959,-2.3964,-2.3968,-2.397,-2.3977,-2.3983,-2.3979,-2.3981,-2.3978,-2.3984,-2.3998,-2.3978,-2.3978,-2.3983,-2.4013,-2.4018,-2.402,-2.3995,-2.3996,-2.3996,-2.4014,0,-2.3946,-2.3959,-2.3959,-2.3971,-2.3977,-2.3974,-2.3981,-2.3984,-2.3984,-2.3989,-2.3989,-2.3994,-2.3988,-2.399,-2.3995,-2.3995,-2.4004,-2.3994,-2.4001,-2.4001,-2.4002,-2.4023,-2.4027,-2.4044,-2.4016,-2.4016,-2.4016,0,-2.3962,-2.3968,-2.3981,-2.3986,-2.3989,-2.3994,-2.4,-2.4005,-2.4009,-2.4009,-2.4012,-2.401,-2.4017,-2.401,-2.402,-2.4013,-2.4017,-2.4017,-2.4018,-2.4019,-2.401,-2.4025,-2.4049,-2.4052,-2.402,-2.402,-2.4019,0,-2.3973,-2.3983,-2.3993,-2.3996,-2.4002,-2.4006,-2.4008,-2.4012,-2.4016,-2.4021,-2.4023,-2.4029,-2.4031,-2.4036,-2.4035,-2.4029,-2.4046,-2.4038,-2.4047,-2.4047,-2.405,-2.405,-2.4076,-2.4052,-2.4052,-2.4052,-2.4052,0,-2.3987,-2.3996,-2.3999,-2.4005,-2.4015,-2.4015,-2.4024,-2.4026,-2.403,-2.4037,-2.4034,-2.404,-2.4038,-2.4044,-2.4043,-2.4054,-2.4054,-2.4055,-2.4055,-2.4055,-2.4056,-2.4057,-2.4057,-2.4052,-2.4052,-2.4052,-2.4052,0,-2.4001,-2.4003,-2.4014,-2.4019,-2.4021,-2.4028,-2.4033,-2.4039,-2.404,-2.4049,-2.405,-2.4052,-2.4059,-2.4059,-2.4067,-2.4067,-2.4079,-2.4077,-2.4079,-2.4078,-2.4088,-2.4087,-2.4115,-2.412,-2.4092,-2.4093,-2.4093,0,-2.401,-2.4017,-2.4024,-2.4029,-2.4032,-2.404,-2.4045,-2.4045,-2.405,-2.4056,-2.4062,-2.4069,-2.4075,-2.4088,-2.4089,-2.4096,-2.4094,-2.4104,-2.4095,-2.4096,-2.4095,-2.4095,-2.4097,-2.4105,-2.4106,-2.4106,-2.4106,0,-2.4026,-2.4028,-2.4035,-2.4044,-2.405,-2.4056,-2.4062,-2.4066,-2.4067,-2.4073,-2.4082,-2.4086,-2.4096,-2.4104,-2.4111,-2.4113,-2.411,-2.4109,-2.4112,-2.4113,-2.4114,-2.4114,-2.4084,-2.4108,-2.4108,-2.4108,-2.4108,-2.4108,-2.4038,-2.4045,-2.4052,-2.4061,-2.4066,-2.4072,-2.4079,-2.4082,-2.409,-2.4098,-2.4098,-2.4108,-2.4113,-2.4122,-2.4126,-2.4133,-2.413,-2.4133,-2.4134,-2.4135,-2.4137,-2.4112,-2.4134,-2.4134,-2.4134,-2.4134,-2.4134,0,-2.4055,-2.4061,-2.4069,-2.4078,-2.4086,-2.4084,-2.4091,-2.4097,-2.4106,-2.4112,-2.4119,-2.413,-2.4138,-2.4141,-2.415,-2.4155,-2.4154,-2.4157,-2.4157,-2.4158,-2.4139,-2.4136,-2.4158,-2.4158,-2.4158,-2.4158,-2.4158,-2.4158,-2.4065,-2.4078,-2.408,-2.4095,-2.41,-2.4111,-2.4115,-2.4121,-2.4126,-2.4139,-2.4146,-2.4149,-2.4154,-2.4163,-2.4171,-2.4172,-2.4175,-2.4179,-2.4179,-2.4161,-2.4159,-2.4157,-2.4154,-2.418,-2.418,-2.4198,-2.4198,-2.4199]}]]